GFSNW_con_lsi_000.txt.gz
Lid_Strength_Index
5 6 6 6 5 5 4 6 10 3 2 8 8 11 10 8 8 7 9 9 10 12 11 12 12 13 11 9 9 12 11 12 16 13 12 13 13 13 13 16 16 16 16 16
5 6 6 6 5 4 7 8 8 2 2 12 11 9 9 8 9 9 9 10 9 9 11 14 12 11 8 7 9 11 10 14 18 16 13 13 14 12 11 12 14 17 19 17
5 5 5 5 5 5 7 8 12 7 5 6 9 10 10 10 7 8 8 9 8 10 12 10 12 12 9 9 9 7 8 13 15 18 15 13 14 13 12 13 17 17 16 15
5 5 5 5 5 4 8 11 12 9 13 10 9 9 9 11 11 8 8 10 10 11 13 12 13 11 10 10 8 9 10 14 13 12 12 13 13 13 13 14 13 16 14 14
5 5 5 5 5 4 10 13 12 11 11 11 11 10 10 10 9 9 10 10 9 9 11 11 13 11 12 11 10 10 9 14 13 15 13 14 14 13 14 13 13 13 13 15
4 4 4 3 3 5 11 10 9 9 12 12 13 13 12 11 10 10 10 11 10 10 9 9 9 10 10 10 12 12 12 13 14 17 14 14 17 15 13 13 11 14 16 17
3 3 3 3 3 4 8 9 10 11 16 13 13 12 12 13 12 13 12 11 11 10 9 9 10 10 11 11 11 11 12 14 16 16 19 22 16 13 13 15 15 14 15 16
2 2 3 3 2 2 6 8 9 13 18 13 13 13 12 13 13 13 13 12 10 9 12 15 21 21 19 14 13 13 11 13 19 20 24 17 15 15 15 15 16 14 14 13
2 2 2 2 2 2 6 6 7 9 14 15 12 14 13 16 18 16 13 11 11 11 14 20 27 25 22 22 18 13 13 12 14 22 22 27 17 14 13 13 20 16 14 14
2 2 1 1 1 2 5 7 6 8 11 12 12 14 13 12 13 18 17 16 14 11 16 28 26 25 16 22 24 22 26 26 22 24 26 23 17 15 13 23 21 17 14 13
2 2 2 1 1 1 2 5 5 6 9 9 10 9 11 11 13 17 16 15 16 16 22 24 17 22 17 19 17 18 19 25 28 30 30 27 14 14 18 16 14 14 13 11
2 2 2 2 1 1 0 4 3 3 6 8 8 7 6 7 8 11 15 13 18 13 17 20 20 23 23 21 25 15 20 17 22 20 21 13 11 12 10 11 13 12 11 10
1 1 1 1 0 -0 0 2 2 3 6 7 7 8 6 5 5 5 10 14 9 11 9 13 13 17 15 22 22 18 15 13 15 15 13 12 11 10 10 10 10 10 10 10
1 1 0 0 -0 -1 -1 2 2 3 5 10 11 8 8 5 5 6 6 7 8 8 9 10 13 15 11 14 14 15 14 14 16 15 13 11 11 10 9 9 9 10 10 11
-0 -0 -0 -0 -0 -1 -0 1 1 2 5 10 13 13 9 7 6 6 6 7 8 8 10 11 13 12 11 12 12 14 12 13 15 15 11 10 10 9 9 10 10 11 12 12
-1 -1 -1 -1 -0 -0 2 6 2 1 2 7 11 9 12 9 8 8 8 8 8 8 10 11 10 9 10 13 15 12 10 10 9 10 8 8 7 9 11 12 12 12 13 12
-1 -1 -1 -1 -0 2 5 6 6 1 2 7 10 12 14 10 10 12 10 8 9 9 10 11 10 10 9 11 15 11 10 9 8 10 11 9 10 12 13 12 13 14 14 14
-1 -1 -1 -0 -0 1 4 2 1 1 4 6 11 15 18 12 15 14 10 10 9 9 10 11 11 10 9 13 11 9 8 11 13 15 14 14 14 14 14 15 15 17 17 16
-1 -0 -0 2 3 6 5 0 -0 1 4 10 11 19 21 11 12 11 13 9 13 9 12 11 11 14 15 13 9 9 16 15 18 17 16 17 18 17 17 18 18 19 18 18
-0 1 5 8 6 2 1 4 5 6 6 7 11 21 21 11 13 15 14 11 12 15 14 10 12 14 10 15 17 17 18 19 19 20 20 21 22 20 20 20 19 19 19 20
3 5 7 6 2 6 7 9 10 9 11 10 14 15 17 11 14 13 10 12 14 17 18 16 20 23 13 18 18 18 18 19 21 21 21 21 21 21 21 21 20 21 22 23
4 4 3 3 6 9 11 12 12 13 16 18 16 13 10 11 9 12 11 13 14 18 20 15 18 15 20 21 21 21 21 24 24 23 23 22 21 21 22 23 23 23 23 23
3 5 7 7 8 12 14 18 19 21 22 21 17 14 11 11 9 11 12 15 17 21 18 18 19 21 24 25 24 24 24 25 25 25 24 23 24 23 24 25 24 24 25 25
7 9 12 12 13 15 18 20 21 17 18 19 17 15 12 13 12 11 15 15 15 17 18 22 23 27 29 27 25 29 28 29 27 27 26 26 26 25 25 26 26 26 27 26
8 10 14 13 22 25 29 30 21 18 16 14 15 17 10 16 13 11 14 17 17 17 19 22 28 27 26 26 29 32 31 29 29 29 30 28 27 28 28 27 28 28 26 25
7 11 15 23 21 27 27 29 25 20 14 17 15 16 13 14 12 13 15 17 21 19 28 29 26 26 27 31 33 32 31 32 32 31 31 29 29 29 28 27 28 27 25 24
13 18 22 20 17 18 25 25 21 16 17 20 15 15 16 13 16 19 20 20 23 29 28 27 28 30 33 34 35 34 34 33 33 35 33 32 31 31 32 30 29 26 24 23

GFSNW_con_lsi_003.txt.gz
Lid_Strength_Index
8 8 7 7 6 5 5 7 12 3 1 9 8 11 9 8 9 7 8 9 10 12 11 12 13 13 11 9 11 12 11 12 16 14 11 12 12 11 12 17 18 15 16 17
6 6 6 5 5 5 7 9 9 2 2 12 11 9 9 8 9 9 9 10 9 9 11 14 11 11 8 8 9 11 10 14 18 16 13 12 13 12 12 12 14 17 19 17
5 6 5 5 5 5 8 10 13 8 5 7 9 10 10 10 8 9 8 9 9 10 11 10 12 11 9 9 9 7 8 13 15 17 14 12 15 13 12 13 16 16 16 15
4 5 6 5 4 5 9 12 13 10 12 11 10 9 10 11 11 8 8 10 10 11 13 13 12 11 10 9 8 10 9 15 13 13 12 12 13 13 14 15 13 16 14 14
3 4 4 5 4 5 11 13 14 12 11 10 12 10 11 11 10 9 10 10 9 9 12 11 13 11 11 11 10 11 9 14 14 17 13 13 14 13 13 13 14 14 14 13
3 3 3 3 3 6 12 11 10 11 13 13 14 14 12 12 11 11 12 12 11 12 11 10 10 10 10 10 11 12 11 13 15 17 14 14 17 16 14 13 12 13 15 16
3 2 3 3 3 4 8 10 11 15 17 13 13 12 12 13 13 13 12 11 12 11 10 10 11 11 11 11 11 10 12 14 14 16 19 21 15 14 13 14 15 16 16 17
2 2 2 3 2 3 8 8 11 15 19 13 13 13 13 13 14 13 13 12 11 11 13 15 23 23 20 16 13 13 11 13 20 19 22 17 15 14 15 15 17 14 16 15
1 1 1 1 2 2 5 6 6 10 17 17 12 14 13 17 18 17 14 13 13 12 15 22 28 26 23 23 19 14 12 12 14 24 24 28 17 14 12 14 21 16 16 16
1 1 1 1 1 2 6 6 6 8 13 12 12 14 14 13 15 19 19 18 16 13 17 30 27 26 16 22 24 22 25 24 17 17 18 20 16 14 12 23 20 15 15 14
1 1 1 1 1 1 3 6 6 7 10 11 11 10 13 13 15 18 18 17 17 17 23 25 18 22 17 19 17 17 18 24 28 29 27 24 14 14 17 15 13 13 13 12
1 2 1 2 2 1 1 6 5 4 8 11 9 8 8 8 9 12 17 14 19 13 18 21 19 23 21 20 23 15 19 16 21 19 20 13 12 12 10 9 11 11 12 11
2 2 1 1 2 1 2 5 5 5 8 8 9 10 8 7 6 6 11 15 10 10 9 13 13 17 15 23 21 18 15 13 15 15 13 12 11 9 9 10 10 10 10 10
1 1 1 1 1 1 1 4 2 4 6 10 11 9 9 6 5 6 6 7 8 8 8 10 13 18 11 15 14 15 13 14 15 15 12 11 11 10 9 9 9 10 11 11
1 0 0 0 -0 -0 1 2 2 1 5 9 9 10 9 6 6 7 6 7 8 8 10 11 13 13 11 14 12 14 11 13 14 15 11 11 11 9 10 10 10 12 12 12
-0 -0 -0 -1 -1 -1 2 5 2 1 1 6 10 9 12 9 8 7 7 7 7 7 9 10 11 10 10 14 17 12 10 9 9 11 9 9 8 12 12 12 13 13 13 13
-0 -1 -1 -1 -1 1 4 7 4 0 1 6 10 12 12 10 10 12 10 8 8 8 9 11 11 11 9 12 15 11 9 9 9 9 12 11 11 13 14 13 14 14 15 15
-0 -1 -1 -1 -1 -1 3 2 0 1 4 6 11 13 18 12 15 14 9 10 9 9 10 12 12 11 10 14 12 9 9 9 13 15 15 15 15 14 15 15 16 17 17 17
-0 -1 -1 0 2 5 5 -0 -1 1 4 9 11 15 19 11 13 11 13 9 13 9 12 12 12 17 16 13 10 10 11 14 16 17 17 17 17 17 18 19 19 20 19 18
-0 1 4 6 5 0 0 3 5 5 6 7 11 21 19 12 14 16 14 12 14 16 13 10 13 15 11 11 17 17 18 19 18 19 20 21 22 20 20 20 19 19 19 20
3 5 6 5 0 5 6 8 10 10 11 8 13 16 19 13 15 14 10 12 12 15 17 16 26 24 13 18 19 18 19 19 21 21 21 21 21 22 21 21 21 21 21 22
4 4 3 4 6 8 10 11 11 15 17 19 18 16 12 11 10 12 11 13 12 16 23 20 25 17 18 20 21 21 22 23 23 23 23 22 21 22 23 23 23 23 23 23
4 5 8 8 9 13 14 16 20 22 24 21 18 15 12 10 9 10 11 14 15 21 19 20 19 19 24 25 24 24 24 24 25 24 24 24 24 24 25 25 24 25 25 26
7 9 12 12 14 12 16 17 17 16 17 17 16 18 13 11 11 10 14 14 16 19 22 23 19 26 28 26 26 28 27 28 27 29 28 27 26 26 26 26 26 27 28 27
8 8 13 12 20 26 29 31 21 22 17 14 15 16 9 12 12 10 13 17 19 20 20 20 27 27 27 27 28 30 28 30 31 31 32 29 28 29 29 29 29 30 29 29
7 11 14 19 19 24 25 29 20 20 15 17 14 15 13 14 13 14 16 19 22 17 25 30 26 28 28 29 29 29 33 34 33 33 34 30 30 30 30 31 30 30 30 28
13 17 20 18 16 15 18 19 18 15 16 17 16 17 16 13 15 17 21 19 20 30 33 28 28 27 28 29 36 35 35 34 35 37 36 35 33 37 37 33 29 30 27 25

GFSNW_con_lsi_006.txt.gz
Lid_Strength_Index
6 6 7 7 7 6 6 7 12 4 2 9 8 11 10 8 8 6 8 8 10 11 10 11 11 12 9 7 7 10 8 11 15 12 8 8 9 10 11 16 16 14 15 15
7 6 6 6 6 6 7 9 9 3 2 11 11 8 8 7 8 8 8 9 9 8 11 13 10 10 7 7 8 10 9 13 17 15 11 10 12 11 10 11 13 17 19 16
6 6 6 6 5 6 5 8 11 7 5 6 8 10 10 10 7 8 7 8 8 9 11 9 11 10 8 7 7 7 8 12 14 17 14 11 13 12 11 12 16 15 15 13
6 6 7 5 4 5 6 9 11 9 10 9 8 8 9 10 10 7 7 9 9 10 12 11 11 9 9 8 7 8 9 14 12 12 12 12 13 13 12 13 13 16 13 13
4 4 4 6 4 6 8 10 11 9 10 10 9 9 10 10 9 9 10 10 8 8 10 10 12 10 10 10 8 9 8 13 12 14 11 11 13 11 11 11 11 12 11 12
3 3 4 4 5 6 9 8 8 9 12 11 11 11 10 11 10 10 10 10 10 10 9 9 9 8 9 9 10 10 10 12 13 16 12 12 16 13 12 11 10 10 13 11
3 3 3 3 3 5 6 7 8 11 14 12 12 11 10 10 11 11 10 10 11 9 8 8 9 10 10 10 10 9 12 12 12 15 14 19 13 10 11 12 11 12 13 13
3 3 2 3 3 3 5 6 7 10 14 12 12 11 11 11 11 11 11 10 9 8 10 13 16 16 17 14 12 11 10 12 14 16 16 14 13 11 11 12 12 10 11 12
1 1 1 2 2 2 4 5 5 8 12 13 11 12 11 13 13 13 12 10 10 10 12 14 19 19 19 18 17 14 13 11 13 17 18 20 13 11 9 10 15 10 11 11
1 1 1 1 1 1 3 4 4 6 11 10 10 12 12 11 12 13 14 13 12 11 14 17 19 18 15 18 19 17 16 16 16 15 16 13 11 10 9 16 14 9 10 10
0 1 1 1 1 1 3 4 3 6 9 9 9 9 11 11 11 13 14 13 14 14 16 17 16 17 16 16 15 15 15 16 17 18 18 19 10 11 13 10 8 8 9 9
1 1 1 0 0 1 1 5 4 4 8 9 7 7 7 7 8 9 13 11 14 11 13 15 14 16 16 15 17 13 16 13 14 15 14 10 9 9 8 7 8 8 8 8
1 1 1 1 1 1 1 4 5 6 9 9 9 10 7 7 6 5 10 11 8 10 7 11 11 14 12 16 15 13 12 10 13 12 11 10 9 7 7 7 7 7 7 8
1 1 1 1 1 1 1 4 4 5 7 11 9 8 8 5 4 5 5 5 7 6 7 9 11 13 10 12 12 13 11 11 12 12 11 9 9 8 7 7 7 7 8 8
1 1 1 1 1 1 1 2 3 3 6 9 9 9 8 6 5 5 4 5 6 7 9 10 11 9 10 9 10 13 10 11 13 13 9 9 10 7 6 8 8 9 10 11
0 0 0 0 -0 -0 2 6 3 2 3 6 9 6 8 7 5 5 5 6 6 7 8 9 8 8 9 12 14 10 9 8 8 10 8 7 7 6 8 10 11 12 13 13
-0 -0 -0 -1 -1 0 5 5 3 0 1 6 9 9 9 9 7 6 6 6 6 7 8 9 9 9 8 11 14 10 8 8 8 7 8 9 8 9 12 12 14 14 15 14
0 -0 -1 -1 -1 -1 3 1 -0 -0 3 5 9 10 12 9 10 10 7 8 7 8 8 9 10 9 9 12 10 8 8 8 8 8 11 11 13 13 14 15 16 16 16 16
0 -0 -1 0 2 4 4 -0 -1 0 3 8 9 12 14 10 10 9 10 8 11 8 11 10 9 11 14 11 10 9 9 9 9 15 15 15 15 15 16 17 17 17 17 17
0 1 4 6 5 -0 0 3 5 6 6 6 10 12 12 10 11 12 11 10 11 13 12 9 11 12 9 9 8 11 14 15 15 16 17 18 18 17 17 18 18 18 18 19
4 6 7 4 1 4 6 8 9 8 9 8 10 11 13 10 13 12 10 11 11 14 12 12 14 16 11 8 14 16 17 18 19 19 19 19 19 19 19 19 19 19 20 21
4 4 3 4 6 7 10 11 10 10 12 13 12 13 9 10 8 10 10 12 12 15 14 14 16 14 13 17 19 20 20 20 22 22 21 21 20 20 21 22 22 21 21 22
4 5 7 7 8 12 14 15 15 15 17 15 14 12 10 9 8 10 10 13 14 15 15 16 15 14 20 22 22 24 24 23 23 23 23 23 23 23 23 23 23 23 23 24
7 9 12 11 12 12 13 14 14 12 13 14 13 13 11 10 11 10 13 13 15 17 18 18 13 17 23 24 24 25 26 26 25 25 25 25 25 24 24 25 24 25 26 25
8 9 13 12 16 19 20 21 14 14 11 11 13 13 10 12 12 11 13 17 17 16 17 14 17 23 25 25 26 26 27 26 26 26 27 26 26 26 26 26 27 26 27 27
7 11 15 19 17 19 21 21 18 18 11 11 11 12 13 14 13 14 15 17 19 15 15 20 24 26 26 27 27 27 28 28 27 27 28 27 27 27 26 28 27 27 26 27
13 15 20 18 15 15 18 17 16 14 12 13 12 14 14 12 14 16 15 16 13 19 25 25 25 25 26 28 28 27 27 28 29 28 29 29 28 31 30 27 23 25 24 26

GFSNW_con_lsi_009.txt.gz
Lid_Strength_Index
7 7 7 8 8 6 7 7 12 4 2 8 8 11 10 9 9 8 8 8 9 11 10 11 11 11 9 6 7 10 8 11 15 12 8 7 9 10 11 15 17 14 15 16
6 6 7 7 7 7 6 8 8 3 3 11 10 8 9 8 9 8 8 9 8 7 10 12 10 9 7 6 8 10 9 13 17 15 10 10 12 10 10 11 12 16 18 16
6 6 7 6 7 6 5 8 12 7 5 5 8 9 9 9 6 8 7 8 7 9 10 8 10 9 8 7 7 7 7 11 14 17 13 11 13 12 11 13 16 16 15 13
6 6 6 6 7 7 6 8 11 9 11 9 8 8 9 10 10 7 7 8 8 9 11 10 10 8 8 7 7 7 8 14 12 11 11 11 11 12 11 13 12 15 13 13
6 6 6 6 6 7 9 11 11 9 8 7 8 9 10 10 9 9 9 9 9 8 10 10 11 10 9 10 8 8 7 13 11 14 11 11 12 11 11 11 11 11 11 11
6 6 6 6 5 7 9 8 7 8 10 10 9 9 9 9 8 9 9 9 9 10 9 9 9 8 8 8 9 10 10 11 13 16 12 12 15 13 11 11 10 10 13 11
4 4 4 3 3 5 6 6 7 10 12 11 11 11 9 10 9 10 9 9 9 9 7 8 9 9 10 9 9 8 11 12 12 15 14 20 13 10 11 12 12 10 10 11
2 3 2 3 3 3 5 5 7 9 12 11 11 11 10 9 10 10 10 9 8 7 9 12 14 15 15 13 11 11 9 12 15 17 17 14 13 11 11 13 13 9 9 11
2 2 2 2 2 2 4 5 4 7 10 11 10 10 10 11 11 12 11 9 8 8 11 13 17 18 16 17 15 13 12 11 13 15 19 20 14 11 10 10 15 8 9 10
1 1 2 2 2 2 2 4 3 6 10 9 9 11 11 9 10 11 11 11 11 9 13 15 16 17 14 18 18 16 16 15 16 15 16 14 9 10 9 15 13 8 8 9
0 1 1 1 1 1 2 3 2 5 8 7 8 8 9 9 9 11 13 12 12 12 14 15 15 16 15 16 14 15 15 16 16 15 17 19 9 10 12 9 7 7 8 8
1 1 1 0 0 0 1 5 3 2 6 7 5 5 5 6 7 8 11 10 12 11 13 12 12 15 14 15 18 12 16 13 13 13 13 9 8 8 7 6 7 7 7 7
1 1 0 0 0 0 1 3 4 5 8 8 8 8 6 5 5 5 10 9 8 9 8 9 11 14 12 15 15 12 10 9 12 11 10 9 8 6 6 6 7 6 6 7
1 1 1 0 -0 0 0 3 3 4 6 10 9 7 6 4 5 5 5 6 7 7 8 9 11 13 10 11 10 10 10 9 11 11 9 9 8 7 7 6 6 7 6 7
1 1 1 1 1 1 1 2 3 2 7 10 9 8 6 5 5 5 5 6 6 7 9 9 11 8 9 9 9 11 9 10 11 12 8 9 9 7 6 7 7 7 8 9
0 0 0 1 0 -0 2 6 2 3 3 7 10 5 8 7 5 5 6 5 5 6 7 8 7 6 8 11 12 9 8 7 6 8 7 7 7 6 6 7 8 9 10 11
0 -0 -1 -1 -1 0 4 6 3 1 1 6 9 8 8 7 6 6 5 4 5 6 7 8 7 8 7 10 13 9 7 7 6 6 7 8 7 8 8 10 11 13 14 14
0 0 -0 -1 -1 -0 3 1 0 -0 4 5 9 9 9 7 10 9 6 7 7 6 7 7 8 7 8 12 9 8 7 6 6 6 6 7 9 10 12 13 14 15 14 14
1 0 0 0 2 5 4 -1 -1 -0 4 8 8 10 12 8 8 7 9 7 10 6 9 9 8 10 12 10 9 8 7 7 7 7 13 13 13 12 13 14 15 16 15 16
1 2 5 6 5 -0 -0 3 5 5 5 6 9 6 10 8 9 10 9 9 10 12 10 8 10 11 8 7 7 7 7 10 11 13 14 16 16 15 14 16 16 17 17 17
3 6 6 3 1 3 5 8 9 8 9 7 7 7 11 8 10 10 8 10 10 14 11 11 12 13 9 7 7 8 12 13 15 15 16 17 17 15 16 17 18 18 18 19
3 3 3 4 5 7 9 10 9 9 11 9 10 9 7 9 7 10 10 11 11 14 10 12 14 10 9 10 14 16 16 17 19 19 19 19 19 19 19 20 20 20 20 20
3 5 6 7 7 11 12 13 12 12 12 11 10 11 8 9 8 9 10 13 14 12 13 14 11 10 14 17 19 22 21 21 21 22 21 21 22 22 22 22 21 21 22 22
7 8 11 10 11 11 11 10 9 8 8 10 8 10 10 9 11 10 13 12 14 15 16 15 10 10 17 20 20 23 23 23 22 23 23 23 23 23 22 23 23 24 24 23
8 8 12 11 11 14 15 16 12 11 8 10 11 10 9 10 11 10 13 16 16 15 14 10 9 18 22 23 23 23 24 24 24 24 25 24 24 24 24 23 25 24 25 25
7 9 13 15 11 13 16 15 13 14 9 9 8 11 12 13 11 13 14 16 17 12 11 15 20 23 23 24 24 24 25 25 25 25 25 24 25 25 24 26 26 25 25 25
11 14 15 16 11 9 11 12 12 11 9 11 11 13 14 11 13 14 12 13 10 13 18 20 21 22 24 26 26 27 27 26 26 26 26 26 26 29 28 26 22 24 22 25

GFSNW_con_lsi_015.txt.gz
Lid_Strength_Index
6 7 6 6 5 5 6 9 12 6 4 12 11 13 11 9 10 9 10 11 11 12 11 12 12 13 11 9 9 11 10 12 17 14 10 9 10 12 12 16 17 16 16 16
7 7 7 7 6 6 8 10 10 5 6 14 13 11 11 10 11 10 10 11 11 10 11 13 11 11 9 8 9 10 9 13 18 17 14 11 13 12 11 11 13 16 19 16
7 8 8 7 6 8 8 11 13 10 9 11 12 12 13 13 9 10 10 10 9 10 11 10 12 11 9 8 8 7 7 12 15 17 16 13 14 13 12 12 16 16 15 14
6 8 8 8 9 8 8 11 14 11 14 12 11 11 11 12 12 10 9 11 10 10 12 12 12 10 10 9 7 9 9 15 13 13 12 13 13 13 13 14 13 16 13 13
5 6 6 6 7 8 9 13 13 12 12 10 11 11 12 12 11 10 11 11 10 10 12 11 15 12 12 12 11 11 10 17 15 18 13 13 15 14 14 14 13 13 13 13
5 6 6 5 6 8 12 12 11 11 13 14 13 12 12 12 11 11 11 10 11 12 13 11 11 11 11 11 12 13 13 16 20 20 15 16 21 16 15 14 13 14 16 14
5 6 6 6 6 7 10 10 11 14 16 14 14 14 12 12 11 12 13 11 12 12 10 11 12 13 13 13 12 10 14 17 20 24 23 28 17 14 14 14 14 15 15 17
4 5 5 5 5 6 9 10 11 14 19 14 14 14 15 14 13 13 13 13 11 10 12 16 20 21 19 17 15 14 11 14 22 23 28 19 16 14 15 15 17 15 16 15
4 4 4 4 4 3 8 10 10 13 17 17 14 15 14 15 16 16 14 12 12 11 13 19 26 25 21 22 18 15 13 12 16 24 23 27 18 14 13 14 20 17 18 17
2 2 2 2 2 3 7 9 9 12 17 13 13 14 13 12 13 15 15 15 14 12 16 26 24 24 17 22 24 24 24 25 18 18 19 20 16 15 13 23 19 17 16 15
1 2 2 2 2 2 4 7 7 10 15 12 11 11 12 12 13 16 16 16 16 17 22 21 17 22 17 20 18 19 19 22 26 28 30 25 14 15 17 15 12 13 13 12
1 1 1 1 1 1 2 6 5 6 10 12 8 8 8 9 9 13 17 15 18 14 18 20 19 24 22 22 25 16 20 17 21 19 20 14 13 13 11 10 12 11 11 10
1 1 1 1 1 1 1 4 4 5 9 9 9 12 7 6 7 8 14 15 11 11 11 16 18 22 17 24 23 19 16 15 17 18 15 14 12 10 10 9 9 9 9 9
1 1 1 1 1 1 1 4 4 5 8 12 13 8 9 6 6 7 8 9 9 10 11 16 19 22 13 19 16 17 15 15 18 17 13 12 11 10 9 9 8 9 9 9
1 1 1 1 0 0 1 2 3 3 7 12 15 13 9 6 6 7 7 9 10 11 14 18 18 15 15 17 14 17 13 14 15 15 11 11 10 9 9 9 9 9 9 10
1 1 1 1 -0 -0 2 7 3 3 3 8 12 10 13 9 7 8 8 8 9 9 11 12 13 11 12 16 21 12 11 10 9 11 8 8 8 8 8 9 9 9 9 9
2 1 1 1 0 1 5 6 4 1 2 7 10 10 12 9 9 11 10 8 8 8 9 11 12 12 9 12 18 12 10 9 8 8 8 9 9 9 9 9 9 11 13 13
2 1 1 1 0 1 4 2 1 0 5 7 10 12 13 9 9 10 8 8 8 8 8 10 11 9 9 13 12 9 8 8 9 9 8 8 8 11 11 12 13 15 14 15
1 1 1 2 5 7 6 0 -0 1 4 9 10 13 17 8 9 8 9 7 10 7 9 10 9 13 14 12 10 9 8 8 8 7 12 12 11 10 13 14 16 15 15 16
1 2 6 8 6 1 1 4 6 6 6 6 10 16 13 10 12 13 11 10 11 13 11 9 11 12 9 8 8 8 8 9 11 14 14 19 17 15 14 15 16 16 16 17
4 6 7 6 1 5 6 9 9 14 15 9 12 11 14 12 15 16 10 13 11 14 14 13 15 18 11 8 8 7 7 9 12 13 15 15 15 15 16 17 18 18 19 21
4 4 3 4 6 7 10 12 14 15 16 15 12 15 12 11 10 11 11 13 13 16 14 15 17 14 10 11 9 9 13 15 19 19 18 18 17 18 18 20 21 23 22 23
4 6 9 9 9 13 14 21 14 21 15 14 18 15 11 9 9 11 12 14 15 13 14 16 17 15 14 11 18 21 22 22 22 22 22 22 23 24 25 25 25 25 26 29
9 10 13 13 14 17 18 20 16 13 15 15 15 13 13 12 11 10 14 13 14 16 17 19 18 15 13 18 21 22 24 24 23 25 24 25 25 26 27 27 28 29 29 30
10 10 15 14 18 22 23 24 18 16 15 10 13 15 10 12 12 11 14 17 18 18 20 19 19 19 20 22 23 24 26 26 27 29 28 27 27 28 30 33 33 32 31 31
9 12 13 20 19 23 23 25 20 14 9 9 9 11 12 13 12 13 16 17 18 18 20 24 24 25 22 24 25 26 27 29 30 30 30 29 29 29 31 36 35 34 33 32
10 16 28 22 15 14 16 20 18 14 10 13 12 14 14 11 14 15 13 17 19 23 22 22 22 22 24 26 28 28 28 29 32 35 33 34 35 36 35 31 32 34 34 32

GFSNW_con_lsi_021.txt.gz
Lid_Strength_Index
2 2 3 3 3 3 4 7 10 6 4 10 9 12 10 9 10 9 10 11 12 13 14 15 15 14 13 12 12 13 12 15 19 16 14 13 13 13 13 16 17 17 17 16
4 4 3 4 3 4 6 9 10 7 6 12 12 11 11 10 11 11 11 12 11 12 13 14 14 14 12 12 12 13 11 16 21 17 15 14 15 14 14 14 15 18 18 17
6 5 4 6 6 7 8 11 14 11 10 10 11 12 12 12 10 11 11 11 11 12 13 13 14 14 12 12 12 9 9 14 15 17 16 15 16 15 15 15 17 15 15 15
6 6 6 6 6 7 8 12 13 12 15 13 12 11 11 12 13 11 11 12 12 13 14 15 14 14 13 12 11 12 11 16 15 15 15 14 15 16 16 16 16 17 16 16
6 7 6 7 7 7 11 13 14 13 13 12 13 12 13 12 12 12 12 12 12 12 13 13 14 13 13 13 14 13 13 18 16 18 15 14 15 14 14 14 14 15 14 14
5 6 7 7 8 8 12 12 12 12 14 13 13 13 12 12 11 12 12 11 12 12 12 10 12 12 12 12 13 14 14 17 17 17 17 17 19 19 16 15 14 14 16 13
3 4 6 7 8 9 11 12 12 15 16 14 14 13 12 12 12 13 14 13 12 14 14 13 14 15 16 14 14 13 16 17 17 20 23 22 17 18 16 16 16 16 16 17
3 3 4 5 6 7 10 11 12 14 16 14 13 13 13 12 11 13 14 15 14 12 13 15 17 18 17 18 18 16 14 15 20 20 24 20 18 17 17 17 18 16 15 15
2 3 4 4 5 6 8 10 9 13 15 15 13 14 13 15 14 16 17 15 14 14 15 16 19 21 19 22 21 18 16 15 16 24 24 24 18 16 15 15 20 18 16 16
2 2 3 3 4 5 9 10 9 12 15 14 14 15 15 14 15 17 17 16 15 15 17 21 21 19 19 22 24 24 23 20 18 19 19 22 18 16 14 21 18 18 16 15
2 2 3 2 2 4 8 10 10 12 15 14 13 13 15 15 15 17 18 16 16 17 18 18 19 21 20 23 21 21 21 22 22 22 26 24 15 15 17 14 14 14 14 13
1 1 1 2 2 4 6 10 9 10 14 14 12 12 12 12 13 16 18 16 18 15 18 20 19 22 22 23 25 18 19 17 20 18 19 14 13 13 11 12 13 12 12 12
1 1 1 1 1 2 4 7 8 9 13 13 14 14 11 11 12 11 15 16 14 14 13 18 19 22 18 23 22 20 17 16 18 18 16 15 13 11 12 11 11 11 11 11
1 1 1 1 1 1 2 6 5 7 10 16 14 12 12 9 9 9 10 11 12 11 12 16 19 21 15 19 17 18 16 16 19 18 15 14 12 11 11 11 11 11 11 11
1 1 1 0 0 0 1 3 4 4 9 15 16 13 10 9 9 10 10 10 11 12 15 18 19 16 16 18 16 19 15 16 17 18 13 12 11 11 10 11 11 11 11 11
1 0 1 1 0 0 2 7 4 3 5 9 16 11 12 10 10 10 11 10 12 12 14 15 15 13 14 21 22 14 12 13 12 13 11 10 9 9 10 10 10 9 10 10
0 0 0 0 1 2 7 7 5 2 3 9 13 17 13 11 11 13 12 11 12 12 13 15 13 13 11 14 20 13 12 12 12 10 10 11 10 10 10 10 9 10 11 11
-0 -0 0 1 1 1 5 3 1 1 6 7 11 18 14 10 13 12 11 12 11 11 11 12 15 12 11 16 13 11 10 11 11 10 9 8 9 10 10 11 12 13 12 12
-1 -1 -0 2 4 6 6 1 1 2 6 10 11 17 21 11 10 10 10 9 12 9 11 12 10 13 15 14 12 11 10 10 9 8 11 10 11 9 11 13 15 13 11 13
-1 2 5 8 6 2 2 4 6 6 7 7 11 17 21 12 14 16 12 10 11 13 12 10 12 12 11 11 12 10 9 9 8 14 14 19 15 12 12 13 11 11 12 16
4 6 8 6 2 5 8 11 10 10 11 9 16 17 17 13 18 17 10 13 12 15 14 13 14 17 12 9 10 8 9 9 10 9 8 12 12 12 12 14 15 16 18 20
4 4 3 4 6 8 11 11 14 13 16 17 13 15 14 16 13 15 12 14 13 16 13 14 16 15 11 13 10 8 8 8 12 13 11 16 16 18 18 19 20 22 22 23
4 6 8 8 9 12 14 16 16 19 23 18 15 17 13 13 10 12 13 17 17 17 15 16 17 12 14 16 16 16 21 20 18 21 20 20 22 23 24 24 25 25 27 29
9 10 12 12 14 12 15 18 18 16 18 16 16 13 14 14 12 11 14 13 15 17 19 21 13 20 25 24 24 24 24 24 22 24 23 24 25 26 27 26 27 27 28 31
9 9 13 14 17 23 26 28 22 19 18 12 14 14 10 13 12 11 13 16 17 17 19 19 23 25 26 26 28 29 27 27 28 29 27 27 26 27 30 31 30 30 30 30
8 10 14 22 20 21 22 23 19 16 12 13 12 14 13 13 12 14 15 16 18 19 22 26 25 28 28 29 29 28 28 28 29 29 28 26 28 27 30 33 34 34 32 31
11 14 29 24 21 17 19 19 15 12 11 15 14 14 15 13 16 17 20 21 23 25 25 26 26 27 28 26 28 30 30 30 27 28 28 30 30 30 29 29 33 35 35 34

GFSNW_con_lsi_024.txt.gz
Lid_Strength_Index
2 2 2 2 2 3 3 5 10 3 3 9 9 12 10 9 10 9 11 11 12 13 14 16 16 15 14 12 13 14 13 16 19 17 16 15 16 15 15 17 19 19 19 17
3 2 2 2 2 3 5 8 9 5 4 13 12 10 10 9 10 10 11 12 11 13 14 14 14 14 12 12 12 13 13 16 22 19 17 17 16 16 15 16 16 20 18 18
5 4 4 4 4 4 6 10 13 10 9 8 10 11 11 12 10 10 10 11 11 12 13 12 14 14 13 12 12 10 11 16 17 18 18 16 17 16 16 15 16 15 16 14
5 5 5 5 5 6 7 11 13 12 13 11 10 9 11 12 13 11 11 13 12 12 14 14 14 13 14 13 12 12 12 17 17 16 17 17 16 16 17 17 15 15 14 15
5 5 6 6 6 6 10 12 13 12 13 11 11 10 12 12 12 12 13 13 12 11 13 13 15 14 14 14 15 14 14 16 17 20 16 16 17 16 17 15 15 15 15 15
5 6 7 6 7 7 11 12 12 12 13 13 13 13 12 12 11 13 12 11 12 12 11 12 13 12 12 12 14 15 15 17 20 18 19 18 19 17 16 15 15 13 15 13
3 5 6 7 7 8 10 12 12 14 16 15 14 14 12 13 11 14 14 12 11 15 13 13 13 15 15 13 15 14 15 17 17 21 20 22 18 20 17 14 14 15 17 18
2 3 4 6 7 8 10 11 12 14 16 15 15 15 15 13 13 15 15 16 16 13 13 16 17 18 17 17 19 16 15 16 20 20 22 19 18 19 19 18 18 18 15 15
2 2 2 4 5 7 10 11 11 13 16 16 14 14 15 15 15 16 17 16 15 14 15 16 19 21 19 20 21 18 16 15 15 23 23 23 20 18 17 16 21 19 16 16
2 2 2 3 3 5 9 11 10 12 15 14 14 15 15 13 15 17 17 17 16 15 16 19 19 19 18 20 23 25 20 20 18 19 19 19 19 18 16 21 18 19 18 17
1 1 1 2 3 4 7 9 8 11 14 14 14 13 15 15 14 16 17 16 17 17 17 17 19 19 20 21 21 22 21 21 24 22 21 21 17 16 17 15 15 14 15 14
1 1 1 1 2 3 6 10 9 9 13 14 12 12 12 12 12 14 16 15 17 15 17 18 19 22 22 23 23 20 21 19 21 19 19 16 15 14 13 13 14 14 14 13
1 1 1 1 1 1 4 8 10 11 15 14 14 14 11 11 11 11 16 17 15 15 15 18 19 21 20 25 23 22 20 18 20 19 18 16 14 13 12 12 12 12 12 12
1 1 1 1 0 1 3 7 7 10 13 18 15 13 13 11 11 12 13 14 15 15 15 18 20 22 17 21 19 19 18 18 20 19 16 15 13 12 11 11 11 12 12 12
1 1 1 0 0 0 2 4 5 5 9 15 16 14 13 12 11 12 12 13 14 15 17 19 20 17 18 18 16 20 16 17 18 18 13 13 12 11 11 11 11 11 12 13
1 0 1 0 0 0 3 8 4 4 5 11 16 12 14 11 11 12 12 12 12 13 14 16 15 14 14 20 21 15 15 14 13 13 12 12 11 11 11 11 11 11 12 12
0 0 -0 0 0 2 7 8 7 2 4 9 13 16 13 11 12 13 12 12 12 13 14 16 14 14 13 19 21 13 13 13 13 11 12 13 12 11 11 11 11 12 13 13
0 -0 -0 0 -0 2 6 4 2 2 7 8 12 16 14 10 12 13 12 13 13 13 13 14 15 13 13 19 14 12 12 12 12 12 11 9 10 11 11 12 13 14 13 13
-0 -0 -0 2 5 7 6 2 2 4 6 10 11 16 19 10 10 11 12 10 14 11 13 14 12 14 16 14 13 12 12 11 11 12 12 12 12 10 12 13 16 13 13 14
-0 2 6 8 5 1 1 4 7 8 8 8 12 18 20 11 14 14 15 13 14 14 14 11 12 14 11 11 13 11 10 11 11 15 15 19 17 12 12 14 12 12 12 16
5 7 8 5 1 7 9 9 11 9 12 9 12 15 15 13 17 16 11 13 12 15 16 15 18 20 12 9 11 9 10 10 11 10 9 13 13 13 13 14 14 15 18 19
4 5 3 4 7 11 12 13 12 15 16 17 14 14 16 16 14 15 12 13 13 17 17 16 20 16 13 14 11 9 10 13 14 14 12 15 15 18 18 20 21 22 22 22
5 6 8 9 9 13 14 16 18 18 24 19 15 17 14 14 12 15 15 15 16 15 15 17 18 15 19 21 21 20 21 22 21 22 21 21 23 24 24 24 25 25 26 27
9 10 13 13 13 15 14 16 20 17 19 14 17 13 14 16 15 13 18 17 18 21 23 22 19 24 26 25 25 27 24 26 24 25 24 24 25 27 27 27 26 26 27 29
12 12 16 16 19 24 28 28 23 20 20 14 16 16 11 15 13 12 15 18 20 20 21 23 26 27 27 27 28 29 28 28 29 30 28 27 27 28 30 31 29 28 28 29
11 15 19 23 21 23 24 25 19 15 13 14 13 16 15 15 14 14 15 16 18 20 28 29 27 29 29 30 30 31 31 32 32 30 30 28 28 28 31 32 30 29 29 29
12 21 31 28 24 21 22 20 15 12 11 13 12 13 13 13 16 17 18 19 25 27 26 25 26 28 30 29 31 30 30 31 33 33 31 32 31 30 29 28 29 29 29 29

GFSNW_con_lsi_027.txt.gz
Lid_Strength_Index
2 3 3 3 2 3 3 4 10 3 2 9 9 12 11 9 9 9 10 12 13 14 14 16 17 17 15 13 14 15 13 15 19 17 16 16 16 16 16 18 20 20 20 18
3 3 3 2 2 2 3 7 7 3 4 13 12 9 10 9 10 9 10 11 12 12 14 15 15 16 13 13 13 14 13 16 20 19 17 17 17 16 16 16 17 20 20 19
3 4 3 3 2 2 4 9 12 9 6 7 10 11 11 11 8 9 10 11 11 13 13 12 15 15 13 13 13 10 11 15 17 17 17 16 18 17 16 16 20 18 17 15
3 4 4 4 4 4 6 10 12 11 12 11 10 9 10 12 12 9 9 12 11 12 13 13 13 14 14 14 12 12 12 16 17 17 17 16 16 17 17 17 15 16 15 15
3 4 5 5 5 5 10 12 13 12 13 12 11 10 11 12 11 11 12 11 11 10 12 12 13 13 14 14 14 14 13 16 17 19 17 17 18 17 17 16 15 15 15 15
3 4 5 5 6 6 10 11 11 11 12 13 13 12 11 11 9 11 10 10 11 12 10 11 13 11 12 12 14 15 15 17 17 17 20 18 18 17 17 16 16 14 17 13
2 4 4 6 6 8 9 11 11 13 16 13 13 13 12 12 11 12 13 11 11 14 13 12 13 14 14 14 15 13 16 16 16 22 20 22 19 21 16 15 15 16 16 18
2 2 3 5 6 7 10 10 11 13 15 14 15 14 14 13 14 15 15 16 15 12 13 16 17 18 17 19 20 17 15 16 20 21 20 19 20 20 18 17 17 16 14 15
2 2 2 3 6 6 9 10 10 12 15 15 14 15 15 16 16 17 18 16 15 13 15 16 19 20 19 21 21 19 16 15 15 21 21 22 21 19 18 17 20 18 14 14
2 2 1 2 4 5 9 10 8 11 14 14 14 15 15 14 15 17 17 17 15 15 16 18 19 20 18 21 22 22 20 20 18 20 20 19 19 20 18 20 18 20 18 19
1 1 1 1 3 4 8 10 8 10 14 14 14 14 14 15 14 16 17 16 16 17 16 17 18 19 19 20 21 21 20 20 21 20 21 21 18 19 19 16 18 18 18 17
1 1 1 1 2 4 7 11 8 9 13 14 12 11 12 12 10 14 16 15 16 15 16 17 18 21 22 21 21 21 20 17 19 18 18 18 16 16 15 15 15 16 16 15
1 1 1 1 1 2 5 10 10 11 15 14 14 14 11 10 11 10 14 15 13 14 14 16 18 18 19 23 22 21 20 19 20 19 19 18 16 15 15 14 14 14 14 14
1 1 1 1 1 1 3 7 7 9 14 18 15 12 13 10 11 12 12 13 14 14 14 16 18 19 17 19 18 18 18 19 21 20 19 17 15 14 12 12 13 14 14 13
1 1 1 1 0 0 2 4 5 6 10 16 17 14 13 12 11 13 13 13 14 15 17 18 19 18 18 19 18 21 18 20 20 20 16 15 13 11 11 12 12 12 13 13
1 1 1 1 0 0 3 8 5 4 5 11 13 13 14 12 12 13 14 14 14 15 16 17 17 16 17 21 22 17 17 16 15 15 13 12 11 11 12 12 12 12 12 12
1 1 1 0 0 2 7 8 7 3 4 10 14 18 13 12 13 14 13 12 13 13 15 17 16 16 15 19 21 16 15 14 13 12 12 13 12 12 12 12 11 13 14 14
1 1 0 -0 0 1 5 3 2 2 7 8 13 18 14 11 13 13 12 13 14 14 15 15 15 14 14 20 15 13 13 13 13 12 12 11 12 13 13 13 14 15 14 13
0 -0 0 2 4 7 6 1 1 4 6 10 12 17 18 11 11 12 12 11 17 12 16 14 14 18 19 15 13 13 12 12 12 12 13 14 14 12 15 15 17 14 13 14
-0 3 6 9 7 1 3 5 7 8 8 8 14 20 18 11 12 14 16 15 16 18 16 12 13 16 12 11 12 12 11 11 12 15 16 19 17 14 13 15 13 13 12 14
3 7 8 5 2 6 8 10 10 10 12 9 16 18 15 13 17 18 12 16 14 17 19 17 19 21 13 10 11 10 10 11 12 12 12 14 13 13 14 15 14 14 16 18
5 5 4 6 8 11 12 13 12 13 13 14 14 15 17 16 13 13 11 14 14 18 19 16 19 17 20 21 19 18 18 20 17 18 15 17 16 18 18 20 21 23 23 23
5 7 8 10 10 14 16 18 18 20 22 18 16 17 14 14 12 13 13 15 15 15 16 19 18 20 24 26 25 25 23 23 23 22 23 22 24 24 25 25 26 26 27 29
9 11 14 13 15 13 18 19 19 18 18 16 16 14 15 15 14 13 15 15 15 17 20 22 25 27 28 27 28 30 28 28 27 27 26 26 26 27 28 28 29 27 27 29
11 11 15 16 23 25 29 31 23 20 16 13 15 16 12 18 14 12 15 17 18 21 22 26 28 28 29 29 30 31 31 30 30 31 30 28 28 30 31 32 31 29 29 29
14 18 17 20 17 21 25 27 19 17 14 16 15 16 15 14 13 14 16 18 21 21 28 27 27 29 30 32 32 33 33 35 33 32 32 29 30 31 34 34 32 31 30 30
18 25 30 28 23 22 25 25 16 14 17 19 17 17 16 13 15 16 20 17 22 23 24 24 26 28 29 31 32 33 34 32 32 32 32 33 34 33 30 30 33 32 32 30

GFSNW_con_lsi_030.txt.gz
Lid_Strength_Index
1 2 1 1 2 2 3 4 10 3 2 9 9 12 10 9 8 9 9 10 9 12 13 13 14 14 11 11 12 14 11 13 15 15 14 14 12 13 14 15 18 16 17 15
1 2 2 1 2 2 3 7 7 3 4 12 12 9 9 8 9 9 9 10 10 10 12 13 13 13 11 11 12 12 11 13 17 16 15 15 15 14 13 13 15 16 17 15
1 2 2 2 2 2 4 7 11 7 6 7 10 11 11 11 8 9 8 9 8 10 11 11 12 13 12 11 11 10 10 12 14 16 13 13 15 15 14 13 15 14 15 13
1 2 3 3 4 2 5 9 10 10 12 10 10 9 10 11 12 9 8 10 10 10 12 12 12 11 13 12 11 11 11 14 13 12 13 13 13 14 14 14 13 14 13 14
1 2 3 4 5 5 6 12 12 11 12 11 10 10 11 11 10 10 11 11 10 10 12 11 12 10 11 12 13 13 12 14 13 15 14 14 15 14 14 14 13 13 13 13
2 2 3 4 4 6 9 10 10 10 11 12 12 11 11 11 9 9 8 9 10 11 10 8 8 9 9 10 13 14 14 14 16 17 15 17 18 15 14 14 13 13 15 12
2 2 2 4 4 5 9 10 9 12 15 13 13 12 11 12 11 11 11 10 10 9 10 11 12 14 14 13 14 13 14 14 15 17 18 20 15 16 12 13 12 12 13 13
2 2 1 3 3 4 7 9 10 12 15 13 13 12 12 11 13 14 13 15 15 10 12 16 17 17 16 18 19 16 14 14 18 20 19 16 20 18 15 15 14 13 12 12
1 2 2 2 3 4 6 8 8 11 13 14 12 13 13 14 15 16 17 15 15 13 15 16 18 20 17 19 19 17 16 14 15 19 19 20 16 17 16 14 17 15 12 13
1 1 1 1 2 4 6 7 7 9 13 13 12 13 14 13 14 16 17 16 15 15 16 17 18 18 17 19 19 19 18 18 17 18 19 17 15 18 17 18 15 15 13 14
1 1 1 1 2 4 5 8 6 8 12 12 12 12 13 14 13 15 16 15 16 16 16 16 17 18 18 19 19 18 18 18 18 18 19 19 17 18 17 14 16 15 15 15
1 1 1 1 1 2 5 8 7 8 11 12 10 10 11 11 10 14 15 15 15 13 15 15 17 19 19 18 20 20 18 16 17 16 16 17 16 15 15 14 14 16 14 15
1 1 0 0 0 1 4 7 7 9 12 12 12 12 10 10 10 9 13 14 13 14 14 15 16 18 17 18 18 19 18 18 17 16 17 17 16 15 15 14 14 14 14 14
1 1 1 0 0 0 3 6 6 8 12 14 13 11 11 10 10 11 10 11 12 13 13 14 15 16 16 17 17 17 17 17 19 19 18 17 15 15 14 14 14 14 15 14
2 1 1 0 0 0 2 4 5 5 8 13 14 13 12 11 10 11 11 11 12 13 14 15 16 16 17 18 18 18 17 18 18 17 16 15 14 13 13 14 13 13 14 14
2 2 1 1 0 0 3 8 5 4 4 9 13 12 12 11 11 11 11 11 12 13 14 15 16 15 15 17 17 16 15 15 14 15 13 13 13 13 12 12 12 12 12 12
2 1 2 1 0 2 6 7 5 3 4 9 12 13 11 11 11 12 12 11 12 12 14 15 16 16 15 18 18 17 15 14 14 13 13 14 14 13 12 12 11 12 13 12
1 1 1 1 0 1 5 4 2 2 7 8 12 15 13 10 12 13 11 12 11 12 13 13 13 13 14 18 16 14 13 12 13 13 12 12 12 12 12 13 13 14 13 13
1 1 1 2 3 7 6 1 1 3 5 9 12 15 16 10 11 11 11 11 13 11 13 13 12 15 17 13 13 12 12 12 11 11 12 13 13 12 13 13 15 13 12 13
1 2 6 7 6 2 1 6 7 7 7 7 12 14 14 11 11 12 12 12 14 15 14 12 13 15 12 11 11 11 11 11 12 14 14 15 14 13 12 13 12 11 11 12
3 6 7 5 2 6 7 9 9 10 11 10 13 14 13 11 13 13 11 12 12 15 15 14 15 15 14 19 17 17 17 16 13 11 10 11 10 11 11 12 13 13 13 15
4 4 4 5 7 9 12 12 12 11 13 14 13 13 12 12 9 10 10 12 12 15 13 14 17 15 22 24 23 23 22 23 20 19 17 16 15 17 16 17 17 18 19 19
4 5 7 8 9 14 15 17 16 16 15 14 14 13 11 11 10 11 12 14 14 13 14 15 14 21 23 26 26 26 25 25 23 22 21 21 22 23 23 22 23 22 24 24
7 10 14 12 14 12 13 15 15 14 13 14 12 13 11 12 12 12 14 15 13 15 16 16 21 25 27 27 27 29 28 28 26 26 24 25 25 27 27 26 25 24 25 25
10 10 14 14 19 22 24 24 17 17 12 12 13 13 12 13 13 13 15 17 17 16 16 20 24 26 28 28 29 30 30 30 29 28 27 27 27 27 28 29 27 26 26 26
13 18 16 19 16 19 20 18 16 16 12 12 12 14 15 16 14 17 17 17 18 17 23 24 25 27 28 29 30 30 31 31 30 29 28 27 28 28 29 28 28 27 26 27
17 21 23 24 20 21 22 21 16 14 13 14 15 17 17 13 15 18 21 19 23 24 24 24 25 26 27 28 28 30 30 30 30 30 29 29 29 29 26 27 28 27 27 27

GFSNW_con_lsi_033.txt.gz
Lid_Strength_Index
2 1 1 0 -0 0 3 4 10 3 2 9 9 12 10 9 9 7 8 8 9 10 10 12 12 12 10 9 10 12 10 11 14 13 12 11 11 12 13 15 17 16 15 15
2 2 1 1 1 0 3 7 7 2 3 13 12 9 9 9 9 9 9 10 9 8 10 13 11 10 8 9 10 11 10 12 17 15 14 14 14 13 12 13 14 16 17 14
2 2 1 1 1 0 2 6 11 7 6 7 10 11 11 11 8 9 8 9 8 9 10 10 10 10 10 9 10 9 9 11 14 17 13 12 15 14 13 13 15 15 14 12
2 2 2 1 2 2 2 6 9 8 12 10 10 9 9 11 12 8 8 10 9 10 12 11 12 10 11 11 10 10 10 14 12 12 11 11 12 13 14 15 14 14 13 12
1 1 2 1 2 2 5 10 10 9 11 10 10 10 11 11 10 10 11 11 9 9 11 11 12 10 10 11 12 12 12 14 13 14 12 12 13 12 12 13 13 13 12 12
1 1 2 2 2 3 7 8 6 9 12 11 12 11 11 10 9 8 8 9 10 10 9 7 7 7 8 8 11 14 13 14 15 17 13 14 17 14 13 12 12 12 14 11
1 1 1 1 2 2 5 7 8 11 14 13 13 12 11 10 9 10 8 8 9 8 6 8 11 13 12 11 9 11 14 15 15 17 16 21 14 10 11 12 11 11 11 12
1 1 1 2 1 2 3 6 8 12 13 12 11 12 12 12 11 14 13 13 13 12 10 14 15 16 16 16 16 14 12 13 16 18 18 14 13 17 14 13 13 10 11 12
1 1 1 1 1 1 3 4 5 9 12 13 10 11 11 14 15 15 15 15 14 13 14 15 16 18 15 18 18 17 16 12 15 18 19 20 14 14 13 11 16 12 12 13
2 1 1 1 1 1 3 5 4 8 11 10 11 13 13 12 13 15 16 15 15 15 15 16 16 16 15 17 18 19 18 16 17 16 18 16 14 16 13 16 15 15 12 13
2 1 1 0 0 0 2 4 5 6 10 10 11 11 12 13 13 15 15 15 15 16 16 16 17 17 17 16 15 16 17 18 18 16 17 19 16 17 15 14 15 14 13 14
2 2 1 0 0 0 2 5 5 6 8 10 9 9 10 10 11 13 14 14 14 14 15 15 16 17 18 16 18 18 17 15 15 15 15 17 16 16 15 15 14 15 14 13
2 2 1 0 1 0 2 4 5 6 9 10 11 11 9 9 9 9 12 13 12 13 13 14 16 17 17 18 17 18 18 17 16 15 17 16 16 16 15 15 14 14 14 14
2 2 2 1 0 0 2 4 3 5 7 11 12 10 11 9 9 10 10 11 12 12 12 13 14 16 16 16 17 16 16 17 17 19 18 17 15 15 14 14 14 15 14 14
2 2 2 1 0 -0 2 3 3 3 6 10 12 11 10 10 10 10 9 10 11 12 13 13 14 15 16 17 18 17 16 17 17 17 16 14 14 13 13 14 14 14 14 15
2 2 2 1 0 -0 3 8 4 3 4 8 11 10 11 10 10 11 10 11 11 12 12 14 15 14 14 15 15 16 14 14 13 15 13 14 14 13 12 13 13 13 14 14
1 1 1 1 0 1 6 7 3 2 2 8 12 12 10 10 10 11 13 12 12 11 13 14 15 15 13 15 16 15 14 14 14 13 13 15 14 14 13 13 13 13 14 13
1 1 1 0 0 0 4 2 2 1 6 8 10 13 12 10 11 12 10 11 10 11 13 13 13 14 14 16 15 14 14 13 14 14 14 14 14 14 14 14 14 15 14 13
1 0 1 1 3 7 5 1 0 2 5 9 10 14 14 9 10 10 10 10 12 11 12 12 11 13 15 13 13 12 12 13 13 12 13 13 13 12 13 13 14 14 13 13
0 1 5 7 6 2 1 3 7 7 7 7 9 9 13 10 10 11 11 10 12 15 12 11 13 13 12 16 17 17 17 16 12 13 13 14 14 13 12 13 12 12 12 13
3 5 6 4 1 4 7 9 9 8 10 9 11 10 13 9 11 12 10 12 12 15 14 13 14 15 17 20 20 20 19 19 18 17 15 13 13 12 11 12 13 13 15 15
3 3 3 5 6 8 10 10 10 10 11 12 11 11 10 10 8 10 11 12 12 15 12 13 15 16 22 23 23 23 23 24 22 21 20 18 18 19 17 17 17 18 19 19
3 4 6 8 8 13 13 15 14 14 12 11 11 12 11 10 9 10 10 13 14 11 13 14 14 21 23 25 26 26 25 25 24 23 22 21 22 23 23 22 22 21 22 23
6 8 11 11 13 11 11 11 10 10 10 11 9 12 10 10 11 11 13 14 12 14 16 15 18 24 27 26 27 28 28 27 26 25 24 24 24 25 26 25 23 23 24 24
8 8 12 12 16 17 17 16 13 13 9 10 11 10 10 11 12 12 14 16 16 14 15 19 22 25 26 27 27 28 28 28 27 26 26 26 26 26 27 27 26 25 25 25
13 15 14 16 14 16 15 13 13 12 9 9 9 12 12 14 13 15 15 15 16 17 22 23 23 26 27 28 28 28 28 28 27 27 26 27 28 28 27 27 26 26 25 25
15 19 19 19 17 18 18 16 15 13 10 12 11 14 15 12 15 18 21 20 23 23 24 25 26 27 27 27 27 28 28 27 27 27 27 27 26 25 25 26 26 25 26 26

GFSNW_con_lsi_036.txt.gz
Lid_Strength_Index
2 1 2 2 1 0 1 4 10 2 1 9 9 12 10 9 9 7 8 9 10 10 11 13 13 13 11 9 9 12 10 12 17 16 13 13 13 14 14 17 18 16 18 16
1 2 2 2 1 0 2 7 7 2 3 12 12 9 10 9 10 10 9 10 9 9 10 12 12 12 10 9 10 11 10 13 17 17 16 15 15 14 12 12 15 17 19 17
1 1 1 2 1 1 2 6 11 7 6 7 10 11 11 11 8 9 8 9 8 10 11 10 12 12 10 10 10 9 9 12 14 17 15 13 16 15 13 13 17 17 16 15
0 1 1 1 2 2 4 6 9 7 12 10 10 9 10 11 12 9 8 10 9 11 13 11 12 11 12 12 10 10 10 15 13 12 12 12 15 15 14 15 14 16 15 14
0 0 0 1 1 1 5 8 8 7 9 8 10 10 11 11 10 10 11 11 10 9 11 11 12 10 11 13 12 13 12 15 13 15 13 13 14 12 14 14 14 14 14 14
0 0 0 0 1 1 5 6 6 7 9 9 11 12 11 11 9 8 8 9 10 11 10 8 7 8 9 9 12 14 13 14 15 17 14 14 17 14 13 13 13 13 16 13
1 1 0 0 1 0 3 5 6 9 12 10 10 10 10 10 11 11 8 8 9 8 7 6 9 11 11 9 9 11 14 14 15 17 15 21 14 11 11 12 11 11 12 12
2 1 1 1 0 0 2 4 6 9 12 10 10 11 10 10 10 12 13 12 13 11 8 12 15 14 13 12 11 10 10 13 15 18 18 15 14 17 14 14 13 10 11 11
2 2 2 1 0 0 2 3 4 8 11 11 9 10 10 11 13 14 13 14 13 12 11 13 16 18 15 16 16 17 12 11 15 16 19 20 17 17 14 12 16 13 11 11
2 2 2 1 1 0 2 3 3 7 11 9 9 11 11 10 12 13 14 14 14 14 14 14 16 16 13 17 17 20 17 15 16 16 18 16 18 19 15 17 17 18 16 15
2 2 2 1 1 0 2 3 2 5 10 9 9 9 11 12 12 14 14 14 15 15 15 15 16 16 16 16 17 18 16 16 16 15 18 19 17 18 15 16 18 16 16 16
1 2 1 1 1 1 1 4 2 3 8 10 8 8 8 9 10 12 14 13 14 13 14 15 15 17 18 17 18 17 17 16 15 16 16 18 17 17 16 16 16 16 14 15
1 1 1 1 1 0 0 3 4 5 9 10 11 11 9 8 8 8 12 13 12 13 13 14 15 17 16 18 17 18 17 16 16 16 18 18 16 14 15 16 16 16 16 14
1 1 1 1 1 1 0 4 3 4 8 12 14 10 10 9 8 9 9 10 11 12 12 13 14 16 15 16 16 16 16 16 18 20 18 17 16 15 14 14 15 16 16 16
1 1 1 1 1 1 0 3 3 3 7 12 13 13 11 10 9 9 9 10 12 12 13 14 15 15 16 17 17 18 17 16 17 17 16 14 14 13 13 14 15 16 16 17
1 1 1 1 1 1 2 8 3 3 4 9 16 10 12 12 11 10 10 10 11 12 12 15 15 15 15 16 17 16 16 15 13 15 13 13 13 12 13 14 15 15 15 15
0 1 1 1 1 2 5 7 5 2 3 8 13 13 11 12 12 13 13 12 12 12 13 14 16 16 14 16 19 15 15 15 15 13 14 16 16 16 15 14 14 14 15 15
1 1 1 1 0 1 3 3 1 2 7 8 11 14 12 10 12 15 13 14 13 14 14 15 15 15 15 19 15 15 15 15 15 15 15 15 15 15 16 16 17 17 17 17
0 0 0 1 2 6 6 1 0 2 5 9 12 16 16 10 11 13 14 12 16 13 17 15 15 18 20 18 16 17 19 17 17 16 16 16 16 16 17 18 19 17 16 17
0 2 4 7 5 1 1 3 6 7 7 7 12 14 15 10 11 14 15 14 17 21 16 13 18 19 18 19 20 20 20 20 18 16 16 17 17 16 15 16 16 16 16 17
3 5 6 4 1 3 6 8 9 9 11 9 14 14 13 10 16 16 12 16 17 21 19 19 23 23 20 21 21 21 21 21 21 20 18 18 18 17 16 17 18 19 19 20
3 3 3 4 6 7 10 11 10 11 13 13 14 15 13 14 11 15 15 17 15 21 18 20 22 20 24 25 24 24 25 25 24 23 22 21 22 23 21 22 22 23 23 23
3 5 7 8 9 12 13 15 14 15 12 13 13 14 13 13 11 14 13 17 18 14 20 22 23 23 26 27 27 27 27 27 26 25 24 24 25 25 26 25 25 25 25 25
8 8 11 11 13 12 13 17 13 13 12 11 11 12 12 12 14 13 16 14 16 18 23 22 26 29 31 29 29 31 30 30 28 28 27 27 26 27 28 27 26 26 27 28
8 9 15 12 17 17 20 19 18 14 10 10 12 12 11 14 13 13 15 17 18 19 22 27 28 29 28 29 30 32 32 31 30 30 30 29 29 29 29 30 29 28 28 28
14 19 17 19 17 19 18 15 13 10 8 10 10 12 13 14 14 16 16 18 22 25 29 26 26 28 29 30 31 31 33 33 32 32 32 31 31 31 33 31 29 29 28 28
16 19 22 21 21 21 21 18 18 15 9 13 11 14 15 13 17 22 28 30 28 26 27 27 27 29 30 30 30 31 32 33 33 34 33 32 32 29 28 28 29 29 28 28